Pittsburgh, PA

2:14 PM EDT on September 29, 2016 (GMT -0400)
Pittsburgh International

Weather History for KPIT - July, 2013

Change the Weather History Date:

Thursday, July 25, 2013

  Actual Average Record
Temperature  
Mean Temperature 66 °F 73 °F  
Max Temperature 76 °F 82 °F 96 °F (1934)
Min Temperature 55 °F 63 °F 51 °F (1953)
Degree Days  
Heating Degree Days 0 0  
Month to date heating degree days 0 0  
Since 1 June heating degree days 16 38  
Since 1 July heating degree days 0 0  
Cooling Degree Days 1 8  
Month to date cooling degree days 257 197  
Year to date cooling degree days 515 399  
Since 1 June cooling degree days 411 347  
Growing Degree Days 15 (Base 50)    
Moisture  
Dew Point 49 °F    
Average Humidity 58    
Maximum Humidity 77    
Minimum Humidity 38    
Precipitation  
Precipitation 0.00 in 0.12 in 0.92 in (1921)
Month to date precipitation 5.98 3.12  
Year to date precipitation 23.80 22.52  
Snow  
Snow 0.00 in 0.00 in 0.00 in (2002)
Month to date snowfall 0.0 0.0  
Since 1 July snowfall 0.0 0.0  
Snow Depth 0.00 in    
Sea Level Pressure  
Sea Level Pressure 30.07 in    
Wind  
Wind Speed 5 mph (NNE)    
Max Wind Speed 14 mph    
Max Gust Speed 18 mph    
Visibility 10 miles    
Events      
T = Trace of Precipitation, MM = Missing Value Source: NWS Daily Summary

Daily Weather History Graph

Daily Weather History Graph

Search for Another Location

Airport or City:

Trip Planner

Search our weather history database for the weather conditions in past years. The results will help you decide how hot, cold, wet, or windy it might be!

Date:

Astronomy

Jul. 25, 2013 Rise Set
Actual Time 6:11 AM EDT 8:42 PM EDT
Civil Twilight 5:40 AM EDT 9:13 PM EDT
Nautical Twilight 5:01 AM EDT 9:52 PM EDT
Astronomical Twilight 4:18 AM EDT 10:35 PM EDT
Moon 10:21 PM EDT (7/25) 9:40 AM EDT (7/25)
Length of Visible Light 15h 32m
Length of Day
14h 30m
Waning Gibbous, 88% of the Moon is Illuminated
Jul 25
Waning Gibbous
Jul 29
Last Quarter
Aug 6
New
Aug 14
First Quarter
Aug 20
Full

Hourly Weather History & Observations

Time (EDT) Temp. Dew Point Humidity Pressure Visibility Wind Dir Wind Speed Gust Speed Precip Events Conditions
12:51 AM 60.1 °F 48.9 °F 67% 30.04 in 10.0 mi NE 10.4 mph - N/A   Clear
1:51 AM 57.9 °F 48.9 °F 72% 30.04 in 10.0 mi NNE 3.5 mph - N/A   Clear
2:51 AM 57.0 °F 48.9 °F 74% 30.03 in 10.0 mi NE 3.5 mph - N/A   Clear
3:51 AM 55.9 °F 48.9 °F 77% 30.02 in 10.0 mi Calm Calm - N/A   Clear
4:51 AM 55.0 °F 48.9 °F 80% 30.03 in 10.0 mi NNE 3.5 mph - N/A   Clear
5:51 AM 55.0 °F 48.9 °F 80% 30.04 in 10.0 mi NE 3.5 mph - N/A   Partly Cloudy
6:51 AM 55.0 °F 48.9 °F 80% 30.05 in 10.0 mi NNE 4.6 mph - N/A   Partly Cloudy
7:51 AM 57.0 °F 50.0 °F 77% 30.07 in 10.0 mi ENE 4.6 mph - N/A   Partly Cloudy
8:51 AM 59.0 °F 50.0 °F 72% 30.07 in 10.0 mi ENE 5.8 mph - N/A   Partly Cloudy
9:51 AM 63.0 °F 50.0 °F 63% 30.08 in 10.0 mi Variable 4.6 mph - N/A   Partly Cloudy
10:51 AM 66.0 °F 50.0 °F 56% 30.09 in 10.0 mi North 4.6 mph - N/A   Scattered Clouds
11:51 AM 69.1 °F 51.1 °F 53% 30.09 in 10.0 mi NE 9.2 mph - N/A   Scattered Clouds
12:51 PM 70.0 °F 48.9 °F 47% 30.08 in 10.0 mi ENE 3.5 mph - N/A   Scattered Clouds
1:51 PM 73.0 °F 50.0 °F 44% 30.08 in 10.0 mi NE 8.1 mph - N/A   Scattered Clouds
2:51 PM 73.0 °F 46.9 °F 39% 30.08 in 10.0 mi North 8.1 mph 17.3 mph N/A   Scattered Clouds
3:51 PM 73.0 °F 46.9 °F 39% 30.07 in 10.0 mi NE 8.1 mph - N/A   Scattered Clouds
4:51 PM 75.0 °F 48.0 °F 38% 30.08 in 10.0 mi NE 8.1 mph - N/A   Scattered Clouds
5:51 PM 75.9 °F 48.9 °F 38% 30.08 in 10.0 mi NNW 10.4 mph - N/A   Scattered Clouds
6:51 PM 75.0 °F 48.0 °F 38% 30.08 in 10.0 mi NE 10.4 mph - N/A   Partly Cloudy
7:51 PM 73.0 °F 48.0 °F 41% 30.08 in 10.0 mi Variable 3.5 mph - N/A   Partly Cloudy
8:51 PM 72.0 °F 48.9 °F 44% 30.08 in 10.0 mi North 3.5 mph - N/A   Partly Cloudy
9:51 PM 66.0 °F 52.0 °F 60% 30.10 in 10.0 mi WNW 3.5 mph - N/A   Clear
10:51 PM 64.0 °F 53.1 °F 67% 30.11 in 10.0 mi Calm Calm - N/A   Clear
11:51 PM 63.0 °F 53.1 °F 70% 30.11 in 10.0 mi WNW 3.5 mph - N/A   Clear